Time,TemperatureF,DewpointF,PressureIn,WindDirection,WindDirectionDegrees,WindSpeedMPH,WindSpeedGustMPH,Humidity,HourlyPrecipIn,Conditions,Clouds,dailyrainin,SoftwareType,DateUTC
2013-10-21 00:02:00,33.4,22.5,29.97,NW,304,0.0,1.0,64,0.00,,OVC038,0.00,VWS V14.00,2013-10-21 05:02:00,
2013-10-21 00:07:00,33.4,22.9,29.97,NW,305,0.0,1.0,65,0.00,,OVC038,0.00,VWS V14.00,2013-10-21 05:07:00,
2013-10-21 00:12:00,33.3,23.2,29.97,NW,305,0.0,0.0,66,0.00,,OVC038,0.00,VWS V14.00,2013-10-21 05:12:00,
2013-10-21 00:17:00,33.3,23.2,29.97,NW,305,0.0,0.0,66,0.00,,OVC038,0.00,VWS V14.00,2013-10-21 05:17:00,
2013-10-21 00:22:00,33.2,23.5,29.97,NW,305,0.0,2.0,67,0.00,,OVC038,0.00,VWS V14.00,2013-10-21 05:22:00,
2013-10-21 00:27:00,33.2,23.5,29.97,NW,305,0.0,2.0,67,0.00,,OVC038,0.00,VWS V14.00,2013-10-21 05:27:00,
2013-10-21 00:32:00,33.2,23.5,29.97,WNW,294,0.0,8.0,67,0.00,,OVC038,0.00,VWS V14.00,2013-10-21 05:32:00,
2013-10-21 00:37:00,33.2,23.1,29.97,WNW,292,3.0,9.0,66,0.00,,OVC038,0.00,VWS V14.00,2013-10-21 05:37:00,
2013-10-21 00:42:00,33.2,23.1,29.97,WNW,300,0.0,5.0,66,0.00,,OVC038,0.00,VWS V14.00,2013-10-21 05:42:00,
2013-10-21 00:47:00,33.2,22.7,29.97,WNW,293,9.0,14.0,65,0.00,,OVC038,0.00,VWS V14.00,2013-10-21 05:47:00,
2013-10-21 00:52:00,33.1,22.6,29.97,NW,309,6.0,11.0,65,0.00,,OVC038,0.00,VWS V14.00,2013-10-21 05:52:00,
2013-10-21 00:57:00,33.1,22.6,29.97,WNW,302,7.0,11.0,65,0.00,,OVC038,0.00,VWS V14.00,2013-10-21 05:57:00,
2013-10-21 01:02:00,33.1,22.6,29.97,NW,312,0.0,8.0,65,0.00,,OVC040,0.00,VWS V14.00,2013-10-21 06:02:00,
2013-10-21 01:07:00,33.0,22.5,29.97,WNW,302,6.0,11.0,65,0.00,,OVC040,0.00,VWS V14.00,2013-10-21 06:07:00,
2013-10-21 01:12:00,33.0,22.5,29.96,NW,308,10.0,10.0,65,0.00,,OVC040,0.00,VWS V14.00,2013-10-21 06:12:00,
2013-10-21 01:17:00,32.9,22.4,29.97,NW,313,6.0,11.0,65,0.00,,OVC040,0.00,VWS V14.00,2013-10-21 06:17:00,
2013-10-21 01:22:00,32.9,22.4,29.96,WNW,298,5.0,10.0,65,0.00,,OVC040,0.00,VWS V14.00,2013-10-21 06:22:00,
2013-10-21 01:27:00,32.9,22.4,29.96,WNW,293,5.0,10.0,65,0.00,,OVC040,0.00,VWS V14.00,2013-10-21 06:27:00,
2013-10-21 01:32:00,32.8,22.3,29.96,WNW,301,7.0,8.0,65,0.00,,OVC040,0.00,VWS V14.00,2013-10-21 06:32:00,
2013-10-21 01:37:00,32.8,22.0,29.97,WNW,302,0.0,12.0,64,0.00,,OVC040,0.00,VWS V14.00,2013-10-21 06:37:00,
2013-10-21 01:42:00,32.8,22.0,29.97,NW,315,0.0,8.0,64,0.00,,OVC040,0.00,VWS V14.00,2013-10-21 06:42:00,
2013-10-21 01:47:00,32.8,21.6,29.97,NW,311,0.0,10.0,63,0.00,,OVC040,0.00,VWS V14.00,2013-10-21 06:47:00,
2013-10-21 01:52:00,32.7,21.9,29.97,NW,311,0.0,0.0,64,0.00,,OVC040,0.00,VWS V14.00,2013-10-21 06:52:00,
2013-10-21 01:57:00,32.7,22.2,29.97,NW,313,0.0,7.0,65,0.00,,OVC040,0.00,VWS V14.00,2013-10-21 06:57:00,
2013-10-21 02:02:00,32.6,22.1,29.97,NW,315,0.0,6.0,65,0.00,,OVC046,0.00,VWS V14.00,2013-10-21 07:02:00,
2013-10-21 02:07:00,32.6,22.5,29.97,WNW,290,0.0,6.0,66,0.00,,OVC046,0.00,VWS V14.00,2013-10-21 07:07:00,
2013-10-21 02:12:00,32.5,22.8,29.97,WNW,286,5.0,5.0,67,0.00,,OVC046,0.00,VWS V14.00,2013-10-21 07:12:00,
2013-10-21 02:17:00,32.5,22.8,29.97,WNW,283,0.0,7.0,67,0.00,,OVC046,0.00,VWS V14.00,2013-10-21 07:17:00,
2013-10-21 02:22:00,32.4,22.7,29.97,WNW,285,4.0,7.0,67,0.00,,OVC046,0.00,VWS V14.00,2013-10-21 07:22:00,
2013-10-21 02:27:00,32.4,22.7,29.97,WNW,286,0.0,8.0,67,0.00,,OVC046,0.00,VWS V14.00,2013-10-21 07:27:00,
2013-10-21 02:32:00,32.4,22.7,29.97,WNW,286,0.0,0.0,67,0.00,,OVC046,0.00,VWS V14.00,2013-10-21 07:32:00,
2013-10-21 02:37:00,32.4,22.7,29.97,WNW,285,0.0,9.0,67,0.00,,OVC046,0.00,VWS V14.00,2013-10-21 07:37:00,
2013-10-21 02:43:00,32.4,22.7,29.97,WNW,285,0.0,1.0,67,0.00,,OVC046,0.00,VWS V14.00,2013-10-21 07:43:00,
2013-10-21 02:47:00,32.3,22.6,29.97,WNW,285,0.0,7.0,67,0.00,,OVC046,0.00,VWS V14.00,2013-10-21 07:47:00,
2013-10-21 02:52:00,32.3,22.6,29.97,WNW,285,0.0,6.0,67,0.00,,OVC046,0.00,VWS V14.00,2013-10-21 07:52:00,
2013-10-21 02:58:00,32.3,22.6,29.97,WNW,285,1.0,7.0,67,0.00,,OVC046,0.00,VWS V14.00,2013-10-21 07:58:00,
2013-10-21 03:03:00,32.3,22.6,29.97,WNW,283,3.0,6.0,67,0.00,,OVC048,0.00,VWS V14.00,2013-10-21 08:03:00,
2013-10-21 03:08:00,32.3,22.2,29.97,WNW,283,7.0,9.0,66,0.00,,OVC048,0.00,VWS V14.00,2013-10-21 08:08:00,
2013-10-21 03:13:00,32.3,22.2,29.97,West,277,8.0,10.0,66,0.00,,OVC048,0.00,VWS V14.00,2013-10-21 08:13:00,
2013-10-21 03:18:00,32.3,21.9,29.97,WNW,284,0.0,13.0,65,0.00,,OVC048,0.00,VWS V14.00,2013-10-21 08:18:00,
2013-10-21 03:23:00,32.3,21.9,29.97,WNW,284,6.0,8.0,65,0.00,,OVC048,0.00,VWS V14.00,2013-10-21 08:23:00,
2013-10-21 03:28:00,32.3,21.5,29.97,WNW,287,5.0,8.0,64,0.00,,OVC048,0.00,VWS V14.00,2013-10-21 08:28:00,
2013-10-21 03:33:00,32.3,21.5,29.97,WNW,283,0.0,7.0,64,0.00,,OVC048,0.00,VWS V14.00,2013-10-21 08:33:00,
2013-10-21 03:38:00,32.3,21.5,29.97,WNW,288,5.0,8.0,64,0.00,,OVC048,0.00,VWS V14.00,2013-10-21 08:38:00,
2013-10-21 03:43:00,32.3,21.5,29.97,WNW,291,0.0,8.0,64,0.00,,OVC048,0.00,VWS V14.00,2013-10-21 08:43:00,
2013-10-21 03:48:00,32.3,21.5,29.97,WNW,292,0.0,8.0,64,0.00,,OVC048,0.00,VWS V14.00,2013-10-21 08:48:00,
2013-10-21 03:53:00,32.2,21.4,29.97,WNW,291,0.0,4.0,64,0.00,,OVC048,0.00,VWS V14.00,2013-10-21 08:53:00,
2013-10-21 03:58:00,32.2,21.4,29.97,WNW,291,6.0,6.0,64,0.00,,OVC048,0.00,VWS V14.00,2013-10-21 08:58:00,
2013-10-21 04:03:00,32.2,21.4,29.97,NW,305,0.0,5.0,64,0.00,,OVC044,0.00,VWS V14.00,2013-10-21 09:03:00,
2013-10-21 04:08:00,32.2,21.4,29.97,WNW,283,6.0,9.0,64,0.00,,OVC044,0.00,VWS V14.00,2013-10-21 09:08:00,
2013-10-21 04:13:00,32.2,21.4,29.97,WNW,284,0.0,2.0,64,0.00,,OVC044,0.00,VWS V14.00,2013-10-21 09:13:00,
2013-10-21 04:18:00,32.1,21.3,29.97,WNW,287,0.0,6.0,64,0.00,,OVC044,0.00,VWS V14.00,2013-10-21 09:18:00,
2013-10-21 04:23:00,32.1,21.3,29.97,WNW,292,0.0,3.0,64,0.00,,OVC044,0.00,VWS V14.00,2013-10-21 09:23:00,
2013-10-21 04:28:00,32.1,20.9,29.97,WNW,284,9.0,9.0,63,0.00,,OVC044,0.00,VWS V14.00,2013-10-21 09:28:00,
2013-10-21 04:33:00,32.1,20.9,29.97,WNW,294,6.0,8.0,63,0.00,,OVC044,0.00,VWS V14.00,2013-10-21 09:33:00,
2013-10-21 04:38:00,32.2,21.0,29.97,WNW,289,3.0,8.0,63,0.00,,OVC044,0.00,VWS V14.00,2013-10-21 09:38:00,
2013-10-21 04:43:00,32.2,21.0,29.97,WNW,297,4.0,8.0,63,0.00,,OVC044,0.00,VWS V14.00,2013-10-21 09:43:00,
2013-10-21 04:48:00,32.2,20.7,29.97,WNW,300,0.0,10.0,62,0.00,,OVC044,0.00,VWS V14.00,2013-10-21 09:48:00,
2013-10-21 04:53:00,32.2,21.0,29.97,NW,308,0.0,6.0,63,0.00,,OVC044,0.00,VWS V14.00,2013-10-21 09:53:00,
2013-10-21 04:58:00,32.1,20.9,29.97,NNW,336,4.0,8.0,63,0.00,,OVC044,0.00,VWS V14.00,2013-10-21 09:58:00,
2013-10-21 05:03:00,32.1,21.3,29.97,NNW,341,0.0,8.0,64,0.00,,OVC036,0.00,VWS V14.00,2013-10-21 10:03:00,
2013-10-21 05:08:00,31.8,21.0,29.97,NNW,347,0.0,10.0,64,0.00,,OVC036,0.00,VWS V14.00,2013-10-21 10:08:00,
2013-10-21 05:13:00,31.5,20.7,29.97,North,351,0.0,11.0,64,0.00,,OVC036,0.00,VWS V14.00,2013-10-21 10:13:00,
2013-10-21 05:18:00,31.3,20.9,29.98,NNW,347,0.0,11.0,65,0.00,,OVC036,0.00,VWS V14.00,2013-10-21 10:18:00,
2013-10-21 05:23:00,31.1,20.7,29.97,NNW,340,0.0,10.0,65,0.00,,OVC036,0.00,VWS V14.00,2013-10-21 10:23:00,
2013-10-21 05:28:00,31.0,20.3,29.97,NNW,347,0.0,10.0,64,0.00,,OVC036,0.00,VWS V14.00,2013-10-21 10:28:00,
2013-10-21 05:33:00,30.9,20.2,29.97,NNW,345,0.0,9.0,64,0.00,,OVC036,0.00,VWS V14.00,2013-10-21 10:33:00,
2013-10-21 05:38:00,30.8,20.1,29.97,NNW,337,0.0,9.0,64,0.00,,OVC036,0.00,VWS V14.00,2013-10-21 10:38:00,
2013-10-21 05:43:00,30.8,20.4,29.98,NNW,337,2.0,6.0,65,0.00,,OVC036,0.00,VWS V14.00,2013-10-21 10:43:00,
2013-10-21 05:48:00,30.8,20.4,29.97,NNW,337,0.0,6.0,65,0.00,,OVC036,0.00,VWS V14.00,2013-10-21 10:48:00,
2013-10-21 05:53:00,30.7,20.3,29.98,NNW,337,0.0,0.0,65,0.00,,OVC036,0.00,VWS V14.00,2013-10-21 10:53:00,
2013-10-21 05:58:00,30.7,20.3,29.98,NNW,336,0.0,0.0,65,0.00,,OVC036,0.00,VWS V14.00,2013-10-21 10:58:00,
2013-10-21 06:03:00,30.7,20.3,29.98,NNW,333,0.0,0.0,65,0.00,,OVC042,0.00,VWS V14.00,2013-10-21 11:03:00,
2013-10-21 06:08:00,30.7,20.3,29.98,NW,325,0.0,7.0,65,0.00,,OVC042,0.00,VWS V14.00,2013-10-21 11:08:00,
2013-10-21 06:13:00,30.7,20.3,29.98,NW,324,0.0,0.0,65,0.00,,OVC042,0.00,VWS V14.00,2013-10-21 11:13:00,
2013-10-21 06:18:00,30.7,20.3,29.97,NW,324,0.0,0.0,65,0.00,,OVC042,0.00,VWS V14.00,2013-10-21 11:18:00,
2013-10-21 06:23:00,30.6,20.2,29.97,NW,322,0.0,4.0,65,0.00,,OVC042,0.00,VWS V14.00,2013-10-21 11:23:00,
2013-10-21 06:28:00,30.7,20.3,29.97,NW,322,0.0,4.0,65,0.00,,OVC042,0.00,VWS V14.00,2013-10-21 11:28:00,
2013-10-21 06:33:00,30.7,20.3,29.97,NW,322,0.0,0.0,65,0.00,,OVC042,0.00,VWS V14.00,2013-10-21 11:33:00,
2013-10-21 06:38:00,30.7,20.3,29.97,NW,319,0.0,6.0,65,0.00,,OVC042,0.00,VWS V14.00,2013-10-21 11:38:00,
2013-10-21 06:43:00,30.7,20.3,29.97,NW,319,0.0,0.0,65,0.00,,OVC042,0.00,VWS V14.00,2013-10-21 11:43:00,
2013-10-21 06:48:00,30.7,20.3,29.97,NW,319,0.0,0.0,65,0.00,,OVC042,0.00,VWS V14.00,2013-10-21 11:48:00,
2013-10-21 06:53:00,30.6,20.6,29.97,NW,319,0.0,0.0,66,0.00,,OVC042,0.00,VWS V14.00,2013-10-21 11:53:00,
2013-10-21 06:58:00,30.6,20.6,29.97,NW,319,0.0,0.0,66,0.00,,OVC042,0.00,VWS V14.00,2013-10-21 11:58:00,
2013-10-21 07:03:00,30.6,21.0,29.97,NW,320,0.0,0.0,67,0.00,,OVC041,0.00,VWS V14.00,2013-10-21 12:03:00,
2013-10-21 07:08:00,30.6,21.0,29.97,NW,320,0.0,0.0,67,0.00,,OVC041,0.00,VWS V14.00,2013-10-21 12:08:00,
2013-10-21 07:13:00,30.6,20.6,29.97,NW,320,0.0,0.0,66,0.00,,OVC041,0.00,VWS V14.00,2013-10-21 12:13:00,
2013-10-21 07:18:00,30.6,20.6,29.97,NW,318,0.0,5.0,66,0.00,,OVC041,0.00,VWS V14.00,2013-10-21 12:18:00,
2013-10-21 07:23:00,30.6,21.0,29.97,NW,319,0.0,0.0,67,0.00,,OVC041,0.00,VWS V14.00,2013-10-21 12:23:00,
2013-10-21 07:28:00,30.6,21.0,29.98,NW,323,0.0,1.0,67,0.00,,OVC041,0.00,VWS V14.00,2013-10-21 12:28:00,
2013-10-21 07:34:00,30.5,20.9,29.97,NW,324,0.0,0.0,67,0.00,,OVC041,0.00,VWS V14.00,2013-10-21 12:34:00,
2013-10-21 07:39:00,30.5,21.2,29.97,NW,324,0.0,0.0,68,0.00,,OVC041,0.00,VWS V14.00,2013-10-21 12:39:00,
2013-10-21 07:44:00,30.5,21.2,29.97,NW,324,0.0,0.0,68,0.00,,OVC041,0.00,VWS V14.00,2013-10-21 12:44:00,
2013-10-21 07:49:00,30.5,21.2,29.98,NNW,331,7.0,10.0,68,0.00,,OVC041,0.00,VWS V14.00,2013-10-21 12:49:00,
2013-10-21 07:54:00,30.5,21.2,29.98,NNW,336,0.0,8.0,68,0.00,,OVC041,0.00,VWS V14.00,2013-10-21 12:54:00,
2013-10-21 07:59:00,30.5,21.2,29.98,NNW,336,0.0,8.0,68,0.00,,OVC041,0.00,VWS V14.00,2013-10-21 12:59:00,
2013-10-21 08:04:00,30.5,21.2,29.98,NNW,336,0.0,6.0,68,0.00,,OVC041,0.00,VWS V14.00,2013-10-21 13:04:00,
2013-10-21 08:09:00,30.4,21.1,29.98,NNW,336,0.0,6.0,68,0.00,,OVC041,0.00,VWS V14.00,2013-10-21 13:09:00,
2013-10-21 08:14:00,30.4,20.8,29.98,WNW,303,6.0,12.0,67,0.00,,OVC041,0.00,VWS V14.00,2013-10-21 13:14:00,
2013-10-21 08:19:00,30.4,20.4,29.98,NW,307,0.0,12.0,66,0.00,,OVC041,0.00,VWS V14.00,2013-10-21 13:19:00,
2013-10-21 08:24:00,30.4,20.4,29.98,NW,307,0.0,0.0,66,0.00,,OVC041,0.00,VWS V14.00,2013-10-21 13:24:00,
2013-10-21 08:29:00,30.4,20.1,29.98,NW,306,0.0,7.0,65,0.00,,OVC041,0.00,VWS V14.00,2013-10-21 13:29:00,
2013-10-21 08:34:00,30.4,20.1,29.98,NW,313,0.0,10.0,65,0.00,,OVC041,0.00,VWS V14.00,2013-10-21 13:34:00,
2013-10-21 08:39:00,30.4,20.1,29.98,NW,305,0.0,10.0,65,0.00,,OVC041,0.00,VWS V14.00,2013-10-21 13:39:00,
2013-10-21 08:44:00,30.4,19.7,29.98,NW,306,0.0,7.0,64,0.00,,OVC041,0.00,VWS V14.00,2013-10-21 13:44:00,
2013-10-21 08:49:00,30.5,19.8,29.98,NW,313,0.0,7.0,64,0.00,,OVC041,0.00,VWS V14.00,2013-10-21 13:49:00,
2013-10-21 08:54:00,30.5,19.4,29.98,NW,317,4.0,12.0,63,0.00,,OVC041,0.00,VWS V14.00,2013-10-21 13:54:00,
2013-10-21 08:59:00,30.6,19.9,29.98,NW,312,0.0,12.0,64,0.00,,OVC041,0.00,VWS V14.00,2013-10-21 13:59:00,
2013-10-21 09:04:00,30.6,19.5,29.98,NW,311,0.0,9.0,63,0.00,,OVC037,0.00,VWS V14.00,2013-10-21 14:04:00,
2013-10-21 09:09:00,30.7,19.6,29.98,WNW,296,0.0,12.0,63,0.00,,OVC037,0.00,VWS V14.00,2013-10-21 14:09:00,
2013-10-21 09:14:00,30.8,19.3,29.98,NW,306,8.0,12.0,62,0.00,,OVC037,0.00,VWS V14.00,2013-10-21 14:14:00,
2013-10-21 09:19:00,30.9,19.4,29.98,NW,317,0.0,12.0,62,0.00,,OVC037,0.00,VWS V14.00,2013-10-21 14:19:00,
2013-10-21 09:24:00,31.0,19.1,29.99,NW,313,0.0,12.0,61,0.00,,OVC037,0.00,VWS V14.00,2013-10-21 14:24:00,
2013-10-21 09:29:00,31.1,19.2,29.99,NW,305,0.0,12.0,61,0.00,,OVC037,0.00,VWS V14.00,2013-10-21 14:29:00,
2013-10-21 09:34:00,31.2,19.3,29.98,NNW,348,8.0,11.0,61,0.00,,OVC037,0.00,VWS V14.00,2013-10-21 14:34:00,
2013-10-21 09:39:00,31.3,19.4,29.98,NNW,341,0.0,12.0,61,0.00,,OVC037,0.00,VWS V14.00,2013-10-21 14:39:00,
2013-10-21 09:44:00,31.4,19.5,29.98,NW,321,0.0,6.0,61,0.00,,OVC037,0.00,VWS V14.00,2013-10-21 14:44:00,
2013-10-21 09:49:00,31.6,19.7,29.98,NNW,344,0.0,12.0,61,0.00,,OVC037,0.00,VWS V14.00,2013-10-21 14:49:00,
2013-10-21 09:54:00,31.7,19.8,29.99,NNW,332,0.0,10.0,61,0.00,,OVC037,0.00,VWS V14.00,2013-10-21 14:54:00,
2013-10-21 09:59:00,32.0,20.1,29.99,NW,305,11.0,11.0,61,0.00,,OVC037,0.00,VWS V14.00,2013-10-21 14:59:00,
2013-10-21 10:04:00,31.9,19.2,29.99,NW,307,5.0,12.0,59,0.00,,OVC035,0.00,VWS V14.00,2013-10-21 15:04:00,
2013-10-21 10:09:00,31.8,19.1,29.99,NW,320,6.0,15.0,59,0.00,,OVC035,0.00,VWS V14.00,2013-10-21 15:09:00,
2013-10-21 10:14:00,32.1,19.0,29.98,NW,307,5.0,13.0,58,0.00,,OVC035,0.00,VWS V14.00,2013-10-21 15:14:00,
2013-10-21 10:19:00,32.5,19.8,29.98,NW,317,4.0,13.0,59,0.00,,OVC035,0.00,VWS V14.00,2013-10-21 15:19:00,
2013-10-21 10:24:00,33.0,19.9,29.98,NNW,333,0.0,10.0,58,0.00,,OVC035,0.00,VWS V14.00,2013-10-21 15:24:00,
2013-10-21 10:29:00,33.3,19.3,29.98,WNW,298,0.0,14.0,56,0.00,,OVC035,0.00,VWS V14.00,2013-10-21 15:29:00,
2013-10-21 10:34:00,33.1,19.1,29.98,NW,306,5.0,11.0,56,0.00,,OVC035,0.00,VWS V14.00,2013-10-21 15:34:00,
2013-10-21 10:39:00,33.2,20.0,29.99,North,357,2.0,11.0,58,0.00,,OVC035,0.00,VWS V14.00,2013-10-21 15:39:00,
2013-10-21 10:44:00,33.1,19.9,29.99,NNW,344,4.0,13.0,58,0.00,,OVC035,0.00,VWS V14.00,2013-10-21 15:44:00,
2013-10-21 10:49:00,33.3,20.5,29.98,NNW,347,10.0,17.0,59,0.00,,OVC035,0.00,VWS V14.00,2013-10-21 15:49:00,
2013-10-21 10:54:00,33.4,20.2,29.98,NW,304,5.0,18.0,58,0.00,,OVC035,0.00,VWS V14.00,2013-10-21 15:54:00,
2013-10-21 10:59:00,32.9,19.8,29.98,WNW,288,0.0,18.0,58,0.00,,OVC035,0.00,VWS V14.00,2013-10-21 15:59:00,
2013-10-21 11:04:00,33.0,19.9,29.98,WNW,296,12.0,14.0,58,0.00,,BKN031,0.00,VWS V14.00,2013-10-21 16:04:00,
2013-10-21 11:09:00,33.2,20.4,29.98,NW,309,1.0,14.0,59,0.00,,BKN029,0.00,VWS V14.00,2013-10-21 16:09:00,
2013-10-21 11:14:00,33.4,20.2,29.99,NW,307,4.0,15.0,58,0.00,,BKN029,0.00,VWS V14.00,2013-10-21 16:14:00,
2013-10-21 11:19:00,33.5,20.3,29.99,NW,305,0.0,15.0,58,0.00,,BKN029,0.00,VWS V14.00,2013-10-21 16:19:00,
2013-10-21 11:24:00,33.9,20.3,29.99,NNW,329,7.0,15.0,57,0.00,,SCT029,0.00,VWS V14.00,2013-10-21 16:24:00,
2013-10-21 11:29:00,34.2,20.6,29.98,WNW,285,0.0,15.0,57,0.00,,SCT029,0.00,VWS V14.00,2013-10-21 16:29:00,
2013-10-21 11:34:00,34.4,20.3,29.98,NNW,339,0.0,12.0,56,0.00,,SCT029,0.00,VWS V14.00,2013-10-21 16:34:00,
2013-10-21 11:39:00,34.6,20.1,29.98,NW,324,9.0,14.0,55,0.00,,SCT029,0.00,VWS V14.00,2013-10-21 16:39:00,
2013-10-21 11:44:00,34.6,20.1,29.98,WNW,291,0.0,15.0,55,0.00,,SCT029,0.00,VWS V14.00,2013-10-21 16:44:00,
2013-10-21 11:49:00,35.0,20.5,29.98,WNW,283,3.0,15.0,55,0.00,,SCT029,0.00,VWS V14.00,2013-10-21 16:49:00,
2013-10-21 11:55:00,35.1,20.6,29.98,NNW,334,6.0,16.0,55,0.00,,SCT029,0.00,VWS V14.00,2013-10-21 16:55:00,
2013-10-21 12:00:00,35.3,20.3,29.98,WNW,301,0.0,16.0,54,0.00,,SCT029,0.00,VWS V14.00,2013-10-21 17:00:00,
2013-10-21 12:05:00,35.2,19.8,29.98,WNW,285,9.0,18.0,53,0.00,,FEW030,0.00,VWS V14.00,2013-10-21 17:05:00,
2013-10-21 12:10:00,35.3,20.8,29.98,WNW,285,9.0,18.0,55,0.00,,FEW030,0.00,VWS V14.00,2013-10-21 17:10:00,
2013-10-21 12:15:00,35.8,20.8,29.98,WNW,294,6.0,14.0,54,0.00,,FEW030,0.00,VWS V14.00,2013-10-21 17:15:00,
2013-10-21 12:20:00,36.0,21.0,29.98,WNW,282,9.0,14.0,54,0.00,,FEW030,0.00,VWS V14.00,2013-10-21 17:20:00,
2013-10-21 12:25:00,36.1,21.1,29.98,WNW,295,14.0,14.0,54,0.00,,FEW030,0.00,VWS V14.00,2013-10-21 17:25:00,
2013-10-21 12:30:00,36.2,21.2,29.98,WNW,282,8.0,16.0,54,0.00,,FEW030,0.00,VWS V14.00,2013-10-21 17:30:00,
2013-10-21 12:35:00,36.0,21.0,29.98,WNW,301,8.0,13.0,54,0.00,,FEW030,0.00,VWS V14.00,2013-10-21 17:35:00,
2013-10-21 12:40:00,36.3,22.1,29.98,NW,315,8.0,15.0,56,0.00,,FEW030,0.00,VWS V14.00,2013-10-21 17:40:00,
2013-10-21 12:45:00,36.5,21.9,29.98,NW,306,0.0,11.0,55,0.00,,FEW030,0.00,VWS V14.00,2013-10-21 17:45:00,
2013-10-21 12:50:00,36.5,21.9,29.98,NW,313,1.0,4.0,55,0.00,,FEW030,0.00,VWS V14.00,2013-10-21 17:50:00,
2013-10-21 12:55:00,36.3,21.7,29.98,NW,307,5.0,12.0,55,0.00,,FEW030,0.00,VWS V14.00,2013-10-21 17:55:00,
2013-10-21 13:00:00,36.5,22.7,29.97,NW,305,12.0,12.0,57,0.00,,FEW030,0.00,VWS V14.00,2013-10-21 18:00:00,
2013-10-21 13:05:00,36.6,22.4,29.97,NW,320,10.0,15.0,56,0.00,,OVC030,0.00,VWS V14.00,2013-10-21 18:05:00,
2013-10-21 13:10:00,36.2,22.5,29.97,NW,312,6.0,6.0,57,0.00,,OVC030,0.00,VWS V14.00,2013-10-21 18:10:00,
2013-10-21 13:15:00,36.2,22.5,29.97,West,281,0.0,9.0,57,0.00,,OVC030,0.00,VWS V14.00,2013-10-21 18:15:00,
2013-10-21 13:20:00,37.0,23.6,29.97,NW,319,5.0,5.0,58,0.00,,OVC030,0.00,VWS V14.00,2013-10-21 18:20:00,
2013-10-21 13:25:00,37.0,23.6,29.97,West,281,3.0,10.0,58,0.00,,OVC030,0.00,VWS V14.00,2013-10-21 18:25:00,
2013-10-21 13:30:00,37.1,23.3,29.97,NW,319,5.0,8.0,57,0.00,,OVC030,0.00,VWS V14.00,2013-10-21 18:30:00,
2013-10-21 13:35:00,37.0,24.0,29.97,NW,321,2.0,14.0,59,0.00,,OVC030,0.00,VWS V14.00,2013-10-21 18:35:00,
2013-10-21 13:40:00,37.3,23.9,29.97,NW,317,7.0,12.0,58,0.00,,OVC030,0.00,VWS V14.00,2013-10-21 18:40:00,
2013-10-21 13:45:00,37.3,23.5,29.96,NNW,344,0.0,12.0,57,0.00,,OVC030,0.00,VWS V14.00,2013-10-21 18:45:00,
2013-10-21 13:50:00,37.1,23.7,29.96,NW,307,7.0,7.0,58,0.00,,OVC030,0.00,VWS V14.00,2013-10-21 18:50:00,
2013-10-21 13:55:00,37.3,24.3,29.96,NW,320,3.0,14.0,59,0.00,,OVC030,0.00,VWS V14.00,2013-10-21 18:55:00,
2013-10-21 14:00:00,37.7,24.7,29.96,NNW,346,7.0,9.0,59,0.00,,OVC030,0.00,VWS V14.00,2013-10-21 19:00:00,
2013-10-21 14:05:00,37.7,24.7,29.96,WNW,302,8.0,11.0,59,0.00,,BKN035,0.00,VWS V14.00,2013-10-21 19:05:00,
2013-10-21 14:10:00,37.7,24.3,29.96,WNW,288,6.0,8.0,58,0.00,,BKN035,0.00,VWS V14.00,2013-10-21 19:10:00,
2013-10-21 14:15:00,37.6,23.8,29.96,WNW,303,7.0,10.0,57,0.00,,BKN035,0.00,VWS V14.00,2013-10-21 19:15:00,
2013-10-21 14:20:00,37.5,24.1,29.96,WNW,297,9.0,10.0,58,0.00,,BKN035,0.00,VWS V14.00,2013-10-21 19:20:00,
2013-10-21 14:25:00,37.7,24.3,29.95,NNW,339,0.0,14.0,58,0.00,,BKN035,0.00,VWS V14.00,2013-10-21 19:25:00,
2013-10-21 14:30:00,37.9,24.9,29.95,NNW,332,5.0,6.0,59,0.00,,BKN035,0.00,VWS V14.00,2013-10-21 19:30:00,
2013-10-21 14:35:00,38.0,24.5,29.96,NW,307,12.0,15.0,58,0.00,,BKN035,0.00,VWS V14.00,2013-10-21 19:35:00,
2013-10-21 14:40:00,37.6,24.2,29.96,NW,314,3.0,3.0,58,0.00,,BKN035,0.00,VWS V14.00,2013-10-21 19:40:00,
2013-10-21 14:45:00,37.5,24.5,29.96,NW,314,5.0,11.0,59,0.00,,BKN035,0.00,VWS V14.00,2013-10-21 19:45:00,
2013-10-21 14:50:00,37.9,24.5,29.95,WNW,302,8.0,12.0,58,0.00,,BKN035,0.00,VWS V14.00,2013-10-21 19:50:00,
2013-10-21 14:55:00,38.0,25.0,29.95,NNW,334,6.0,12.0,59,0.00,,BKN035,0.00,VWS V14.00,2013-10-21 19:55:00,
2013-10-21 15:00:00,38.0,24.5,29.95,WNW,302,7.0,9.0,58,0.00,,BKN035,0.00,VWS V14.00,2013-10-21 20:00:00,
2013-10-21 15:05:00,37.8,24.4,29.95,NW,307,8.0,12.0,58,0.00,,SCT035,0.00,VWS V14.00,2013-10-21 20:05:00,
2013-10-21 15:10:00,38.0,24.5,29.95,West,277,5.0,7.0,58,0.00,,SCT035,0.00,VWS V14.00,2013-10-21 20:10:00,
2013-10-21 15:15:00,38.1,24.6,29.95,NW,311,4.0,11.0,58,0.00,,SCT035,0.00,VWS V14.00,2013-10-21 20:15:00,
2013-10-21 15:20:00,38.6,25.1,29.95,NW,324,7.0,10.0,58,0.00,,SCT035,0.00,VWS V14.00,2013-10-21 20:20:00,
2013-10-21 15:25:00,39.1,25.6,29.95,WNW,290,0.0,10.0,58,0.00,,SCT035,0.00,VWS V14.00,2013-10-21 20:25:00,
2013-10-21 15:30:00,39.5,25.1,29.95,NW,320,2.0,8.0,56,0.00,,SCT035,0.00,VWS V14.00,2013-10-21 20:30:00,
2013-10-21 15:35:00,39.2,24.8,29.95,West,280,3.0,10.0,56,0.00,,SCT035,0.00,VWS V14.00,2013-10-21 20:35:00,
2013-10-21 15:40:00,39.3,25.4,29.95,WNW,298,0.0,0.0,57,0.00,,SCT035,0.00,VWS V14.00,2013-10-21 20:40:00,
2013-10-21 15:45:00,39.5,25.1,29.95,WNW,300,3.0,8.0,56,0.00,,SCT035,0.00,VWS V14.00,2013-10-21 20:45:00,
2013-10-21 15:50:00,39.4,24.6,29.95,WNW,298,0.0,9.0,55,0.00,,SCT035,0.00,VWS V14.00,2013-10-21 20:50:00,
2013-10-21 15:55:00,38.9,24.1,29.95,WNW,294,4.0,9.0,55,0.00,,SCT035,0.00,VWS V14.00,2013-10-21 20:55:00,
2013-10-21 16:00:00,38.3,24.4,29.95,NW,311,0.0,10.0,57,0.00,,BKN034,0.00,VWS V14.00,2013-10-21 21:00:00,
2013-10-21 16:05:00,38.2,24.3,29.95,NW,314,0.0,10.0,57,0.00,,BKN034,0.00,VWS V14.00,2013-10-21 21:05:00,
2013-10-21 16:10:00,38.1,23.8,29.95,NW,305,0.0,0.0,56,0.00,,BKN034,0.00,VWS V14.00,2013-10-21 21:10:00,
2013-10-21 16:15:00,37.9,24.0,29.95,NW,307,0.0,8.0,57,0.00,,BKN034,0.00,VWS V14.00,2013-10-21 21:15:00,
2013-10-21 16:20:00,37.9,24.0,29.95,NW,317,0.0,0.0,57,0.00,,BKN034,0.00,VWS V14.00,2013-10-21 21:20:00,
2013-10-21 16:25:00,38.0,24.1,29.95,WNW,300,0.0,8.0,57,0.00,,BKN034,0.00,VWS V14.00,2013-10-21 21:25:00,
2013-10-21 16:30:00,38.5,24.6,29.95,NW,326,0.0,1.0,57,0.00,,BKN034,0.00,VWS V14.00,2013-10-21 21:30:00,
2013-10-21 16:35:00,38.6,24.7,29.95,NNW,342,3.0,9.0,57,0.00,,BKN034,0.00,VWS V14.00,2013-10-21 21:35:00,
2013-10-21 16:40:00,38.4,24.1,29.95,NNW,334,0.0,0.0,56,0.00,,BKN034,0.00,VWS V14.00,2013-10-21 21:40:00,
2013-10-21 16:45:00,38.4,24.1,29.95,NNW,335,0.0,0.0,56,0.00,,BKN034,0.00,VWS V14.00,2013-10-21 21:45:00,
2013-10-21 16:50:00,38.6,24.7,29.95,NNW,342,2.0,7.0,57,0.00,,BKN034,0.00,VWS V14.00,2013-10-21 21:50:00,
2013-10-21 16:55:00,38.7,24.8,29.95,NNW,348,0.0,8.0,57,0.00,,BKN034,0.00,VWS V14.00,2013-10-21 21:55:00,
2013-10-21 17:00:00,38.5,24.6,29.95,North,349,0.0,0.0,57,0.00,,OVC036,0.00,VWS V14.00,2013-10-21 22:00:00,
2013-10-21 17:05:00,38.5,24.6,29.95,NNW,348,0.0,0.0,57,0.00,,OVC036,0.00,VWS V14.00,2013-10-21 22:05:00,
2013-10-21 17:10:00,38.6,24.7,29.95,NNW,348,0.0,0.0,57,0.00,,OVC036,0.00,VWS V14.00,2013-10-21 22:10:00,
2013-10-21 17:15:00,38.5,25.0,29.95,NNW,348,0.0,0.0,58,0.00,,OVC036,0.00,VWS V14.00,2013-10-21 22:15:00,
2013-10-21 17:20:00,38.3,24.8,29.96,NNW,346,0.0,0.0,58,0.00,,OVC036,0.00,VWS V14.00,2013-10-21 22:20:00,
2013-10-21 17:26:00,38.1,24.6,29.96,NNW,339,0.0,0.0,58,0.00,,OVC036,0.00,VWS V14.00,2013-10-21 22:26:00,
2013-10-21 17:31:00,37.8,24.0,29.96,NW,314,0.0,0.0,57,0.00,,OVC036,0.00,VWS V14.00,2013-10-21 22:31:00,
2013-10-21 17:36:00,37.6,24.2,29.96,NW,314,0.0,1.0,58,0.00,,OVC036,0.00,VWS V14.00,2013-10-21 22:36:00,
2013-10-21 17:41:00,37.4,24.0,29.96,NW,314,0.0,0.0,58,0.00,,OVC036,0.00,VWS V14.00,2013-10-21 22:41:00,
2013-10-21 17:46:00,37.3,23.9,29.96,NW,311,0.0,8.0,58,0.00,,OVC036,0.00,VWS V14.00,2013-10-21 22:46:00,
2013-10-21 17:51:00,37.3,23.9,29.96,NW,308,0.0,0.0,58,0.00,,OVC036,0.00,VWS V14.00,2013-10-21 22:51:00,
2013-10-21 17:56:00,37.2,23.8,29.96,NW,314,0.0,4.0,58,0.00,,OVC036,0.00,VWS V14.00,2013-10-21 22:56:00,
2013-10-21 18:01:00,37.1,23.7,29.96,NW,314,0.0,0.0,58,0.00,,BKN036,0.00,VWS V14.00,2013-10-21 23:01:00,
2013-10-21 18:06:00,37.0,24.0,29.96,NW,314,0.0,0.0,59,0.00,,BKN036,0.00,VWS V14.00,2013-10-21 23:06:00,
2013-10-21 18:11:00,36.8,24.2,29.96,NW,314,0.0,0.0,60,0.00,,BKN036,0.00,VWS V14.00,2013-10-21 23:11:00,
2013-10-21 18:16:00,36.6,24.4,29.97,NW,314,0.0,0.0,61,0.00,,BKN036,0.00,VWS V14.00,2013-10-21 23:16:00,
2013-10-21 18:21:00,36.4,24.2,29.97,NW,314,0.0,0.0,61,0.00,,BKN036,0.00,VWS V14.00,2013-10-21 23:21:00,
2013-10-21 18:26:00,36.2,24.1,29.97,NW,314,0.0,0.0,61,0.00,,BKN036,0.00,VWS V14.00,2013-10-21 23:26:00,
2013-10-21 18:31:00,36.1,24.4,29.97,NW,314,0.0,0.0,62,0.00,,BKN036,0.00,VWS V14.00,2013-10-21 23:31:00,
2013-10-21 18:36:00,35.9,24.2,29.97,NW,314,0.0,0.0,62,0.00,,BKN036,0.00,VWS V14.00,2013-10-21 23:36:00,
2013-10-21 18:41:00,35.9,24.5,29.97,NW,314,0.0,0.0,63,0.00,,BKN036,0.00,VWS V14.00,2013-10-21 23:41:00,
2013-10-21 18:46:00,35.8,24.8,29.97,NW,314,0.0,0.0,64,0.00,,BKN036,0.00,VWS V14.00,2013-10-21 23:46:00,
2013-10-21 18:51:00,35.7,24.7,29.97,NW,314,0.0,0.0,64,0.00,,BKN036,0.00,VWS V14.00,2013-10-21 23:51:00,
2013-10-21 18:56:00,35.6,24.6,29.97,NW,314,0.0,0.0,64,0.00,,BKN036,0.00,VWS V14.00,2013-10-21 23:56:00,
2013-10-21 19:01:00,35.5,24.5,29.97,NW,314,0.0,0.0,64,0.00,,OVC036,0.00,VWS V14.00,2013-10-22 00:01:00,
2013-10-21 19:06:00,35.5,24.9,29.97,NW,314,0.0,0.0,65,0.00,,OVC036,0.00,VWS V14.00,2013-10-22 00:06:00,
2013-10-21 19:11:00,35.5,24.9,29.97,NW,314,0.0,0.0,65,0.00,,OVC036,0.00,VWS V14.00,2013-10-22 00:11:00,
2013-10-21 19:16:00,35.5,24.9,29.97,NW,314,0.0,0.0,65,0.00,,OVC036,0.00,VWS V14.00,2013-10-22 00:16:00,
2013-10-21 19:21:00,35.6,24.6,29.97,NW,325,0.0,7.0,64,0.00,,OVC036,0.00,VWS V14.00,2013-10-22 00:21:00,
2013-10-21 19:26:00,35.7,24.7,29.97,NW,325,0.0,7.0,64,0.00,,OVC036,0.00,VWS V14.00,2013-10-22 00:26:00,
2013-10-21 19:31:00,35.8,24.8,29.97,NW,325,0.0,0.0,64,0.00,,OVC036,0.00,VWS V14.00,2013-10-22 00:31:00,
2013-10-21 19:36:00,35.9,24.9,29.97,NW,325,0.0,0.0,64,0.00,,OVC036,0.00,VWS V14.00,2013-10-22 00:36:00,
2013-10-21 19:41:00,35.9,24.9,29.97,NW,325,0.0,0.0,64,0.00,,OVC036,0.00,VWS V14.00,2013-10-22 00:41:00,
2013-10-21 19:46:00,35.9,24.5,29.97,NW,325,0.0,0.0,63,0.00,,OVC036,0.00,VWS V14.00,2013-10-22 00:46:00,
2013-10-21 19:51:00,35.9,24.5,29.97,NW,325,0.0,0.0,63,0.00,,OVC036,0.00,VWS V14.00,2013-10-22 00:51:00,
2013-10-21 19:56:00,35.9,24.5,29.97,NW,325,0.0,0.0,63,0.00,,OVC036,0.00,VWS V14.00,2013-10-22 00:56:00,
2013-10-21 20:01:00,35.8,24.8,29.97,NW,325,0.0,0.0,64,0.00,,OVC036,0.00,VWS V14.00,2013-10-22 01:01:00,
2013-10-21 20:06:00,35.8,24.8,29.97,NW,325,0.0,0.0,64,0.00,,OVC036,0.00,VWS V14.00,2013-10-22 01:06:00,
2013-10-21 20:11:00,35.8,24.8,29.97,NW,325,0.0,0.0,64,0.00,,OVC036,0.00,VWS V14.00,2013-10-22 01:11:00,
2013-10-21 20:16:00,35.8,25.2,29.97,NW,325,0.0,0.0,65,0.00,,OVC036,0.00,VWS V14.00,2013-10-22 01:16:00,
2013-10-21 20:21:00,35.8,25.2,29.97,NW,325,0.0,0.0,65,0.00,,OVC036,0.00,VWS V14.00,2013-10-22 01:21:00,
2013-10-21 20:26:00,35.8,25.2,29.97,NW,325,0.0,0.0,65,0.00,,OVC036,0.00,VWS V14.00,2013-10-22 01:26:00,
2013-10-21 20:31:00,35.8,25.2,29.97,NW,325,0.0,0.0,65,0.00,,OVC036,0.00,VWS V14.00,2013-10-22 01:31:00,
2013-10-21 20:36:00,35.8,25.2,29.97,NW,325,0.0,0.0,65,0.00,,OVC036,0.00,VWS V14.00,2013-10-22 01:36:00,
2013-10-21 20:41:00,35.8,25.6,29.97,NW,325,0.0,0.0,66,0.00,,OVC036,0.00,VWS V14.00,2013-10-22 01:41:00,
2013-10-21 20:46:00,35.9,25.7,29.97,NW,325,0.0,0.0,66,0.00,,OVC036,0.00,VWS V14.00,2013-10-22 01:46:00,
2013-10-21 20:51:00,35.8,24.8,29.97,NNW,329,0.0,0.0,64,0.00,,OVC036,0.00,VWS V14.00,2013-10-22 01:51:00,
2013-10-21 20:54:00,35.9,24.5,29.97,NNW,329,0.0,0.0,63,0.00,,OVC036,0.00,VWS V14.00,2013-10-22 01:54:00,
2013-10-21 20:59:00,35.9,24.5,29.97,NNW,330,0.0,0.0,63,0.00,,OVC036,0.00,VWS V14.00,2013-10-22 01:59:00,
2013-10-21 21:04:00,36.0,24.6,29.97,NNW,331,0.0,0.0,63,0.00,,OVC034,0.00,VWS V14.00,2013-10-22 02:04:00,
2013-10-21 21:09:00,36.0,24.6,29.97,NNW,335,0.0,7.0,63,0.00,,OVC034,0.00,VWS V14.00,2013-10-22 02:09:00,
2013-10-21 21:14:00,36.0,24.3,29.97,NNW,335,0.0,0.0,62,0.00,,OVC034,0.00,VWS V14.00,2013-10-22 02:14:00,
2013-10-21 21:19:00,36.0,24.6,29.97,NNW,335,0.0,0.0,63,0.00,,OVC034,0.00,VWS V14.00,2013-10-22 02:19:00,
2013-10-21 21:24:00,36.0,24.6,29.97,NNW,336,0.0,1.0,63,0.00,,OVC034,0.00,VWS V14.00,2013-10-22 02:24:00,
2013-10-21 21:29:00,36.0,25.0,29.97,NNW,336,0.0,1.0,64,0.00,,OVC034,0.00,VWS V14.00,2013-10-22 02:29:00,
2013-10-21 21:34:00,35.9,24.5,29.97,NNW,336,0.0,0.0,63,0.00,,OVC034,0.00,VWS V14.00,2013-10-22 02:34:00,
2013-10-21 21:39:00,35.9,24.5,29.97,NNW,338,0.0,7.0,63,0.00,,OVC034,0.00,VWS V14.00,2013-10-22 02:39:00,
2013-10-21 21:44:00,35.9,24.5,29.97,NNW,338,0.0,0.0,63,0.00,,OVC034,0.00,VWS V14.00,2013-10-22 02:44:00,
2013-10-21 21:49:00,35.9,24.9,29.97,NNW,339,0.0,0.0,64,0.00,,OVC034,0.00,VWS V14.00,2013-10-22 02:49:00,
2013-10-21 21:54:00,35.8,25.2,29.97,NNW,339,0.0,0.0,65,0.00,,OVC034,0.00,VWS V14.00,2013-10-22 02:54:00,
2013-10-21 21:59:00,35.8,25.6,29.97,NNW,339,0.0,0.0,66,0.00,,OVC034,0.00,VWS V14.00,2013-10-22 02:59:00,
2013-10-21 22:04:00,35.7,25.5,29.97,NNW,339,0.0,0.0,66,0.00,,OVC034,0.00,VWS V14.00,2013-10-22 03:04:00,
2013-10-21 22:09:00,35.6,25.7,29.97,NNW,339,0.0,0.0,67,0.00,,OVC034,0.00,VWS V14.00,2013-10-22 03:09:00,
2013-10-21 22:14:00,35.5,25.6,29.97,NNW,339,0.0,0.0,67,0.00,,OVC034,0.00,VWS V14.00,2013-10-22 03:14:00,
2013-10-21 22:19:00,35.5,26.0,29.98,NNW,339,0.0,0.0,68,0.00,,OVC034,0.00,VWS V14.00,2013-10-22 03:19:00,
2013-10-21 22:24:00,35.5,26.0,29.98,NNW,339,0.0,0.0,68,0.00,,OVC034,0.00,VWS V14.00,2013-10-22 03:24:00,
2013-10-21 22:29:00,35.4,25.9,29.98,NNW,338,0.0,3.0,68,0.00,,OVC034,0.00,VWS V14.00,2013-10-22 03:29:00,
2013-10-21 22:34:00,35.4,25.9,29.98,NNW,339,0.0,0.0,68,0.00,,OVC034,0.00,VWS V14.00,2013-10-22 03:34:00,
2013-10-21 22:39:00,35.4,25.9,29.98,NNW,339,0.0,2.0,68,0.00,,OVC034,0.00,VWS V14.00,2013-10-22 03:39:00,
2013-10-21 22:44:00,35.3,25.8,29.98,NNW,339,0.0,1.0,68,0.00,,OVC034,0.00,VWS V14.00,2013-10-22 03:44:00,
2013-10-21 22:49:00,35.3,25.8,29.98,NNW,339,0.0,1.0,68,0.00,,OVC034,0.00,VWS V14.00,2013-10-22 03:49:00,
2013-10-21 22:54:00,35.3,25.8,29.98,NNW,339,1.0,4.0,68,0.00,,OVC034,0.00,VWS V14.00,2013-10-22 03:54:00,
2013-10-21 22:59:00,35.2,25.0,29.98,NNW,340,0.0,8.0,66,0.00,,OVC034,0.00,VWS V14.00,2013-10-22 03:59:00,
2013-10-21 23:01:00,35.2,25.0,29.98,NNW,340,0.0,0.0,66,0.00,,OVC032,0.00,VWS V14.00,2013-10-22 04:01:00,
2013-10-21 23:02:00,35.2,24.6,29.98,NNW,340,0.0,0.0,65,0.00,,OVC032,0.00,VWS V14.00,2013-10-22 04:02:00,
2013-10-21 23:07:00,35.2,24.6,29.98,NNW,340,0.0,0.0,65,0.00,,OVC032,0.00,VWS V14.00,2013-10-22 04:07:00,
2013-10-21 23:12:00,35.2,24.6,29.98,NNW,340,0.0,0.0,65,0.00,,OVC032,0.00,VWS V14.00,2013-10-22 04:12:00,
2013-10-21 23:17:00,35.2,24.6,29.98,NNW,340,0.0,0.0,65,0.00,,OVC032,0.00,VWS V14.00,2013-10-22 04:17:00,
2013-10-21 23:22:00,35.1,24.5,29.98,NNW,340,0.0,0.0,65,0.00,,OVC032,0.00,VWS V14.00,2013-10-22 04:22:00,
2013-10-21 23:27:00,35.1,24.5,29.98,NNW,340,0.0,0.0,65,0.00,,OVC032,0.00,VWS V14.00,2013-10-22 04:27:00,
2013-10-21 23:32:00,35.1,24.2,29.98,NNW,340,0.0,0.0,64,0.00,,OVC032,0.00,VWS V14.00,2013-10-22 04:32:00,
2013-10-21 23:37:00,35.1,24.2,29.98,NNW,340,0.0,0.0,64,0.00,,OVC032,0.00,VWS V14.00,2013-10-22 04:37:00,
2013-10-21 23:42:00,35.1,24.5,29.98,NNW,340,0.0,0.0,65,0.00,,OVC032,0.00,VWS V14.00,2013-10-22 04:42:00,
2013-10-21 23:47:00,35.1,24.9,29.98,NNW,340,0.0,0.0,66,0.00,,OVC032,0.00,VWS V14.00,2013-10-22 04:47:00,
2013-10-21 23:52:00,35.0,24.8,29.98,NNW,340,0.0,0.0,66,0.00,,OVC032,0.00,VWS V14.00,2013-10-22 04:52:00,
2013-10-21 23:57:00,35.0,24.8,29.98,NNW,340,0.0,0.0,66,0.00,,OVC032,0.00,VWS V14.00,2013-10-22 04:57:00,